CST,Max TemperatureF,Mean TemperatureF,Min TemperatureF,Max Dew PointF,MeanDew PointF,Min DewpointF,Max Humidity, Mean Humidity, Min Humidity, Max Sea Level PressureIn, Mean Sea Level PressureIn, Min Sea Level PressureIn, Max VisibilityMiles, Mean VisibilityMiles, Min VisibilityMiles, Max Wind SpeedMPH, Mean Wind SpeedMPH, Max Gust SpeedMPH,PrecipitationIn, CloudCover, Events, WindDirDegrees
2013-1-1,69,62,55,64,60,54,100,93,81,30.07,30.01,29.94,10,8,4,18,8,23,0.08,6,Rain,223
2013-1-2,55,50,44,54,46,42,94,87,76,30.22,30.13,30.01,10,10,7,18,12,22,0.08,8,Rain,9
2013-1-3,48,43,37,43,39,29,100,86,48,30.39,30.26,30.20,10,10,6,16,10,23,0.31,6,Rain,12
2013-1-4,57,46,36,38,30,26,69,55,30,30.45,30.38,30.34,10,10,10,14,7,,0.00,1,,30
2013-1-5,51,46,42,38,34,31,68,60,51,30.38,30.31,30.25,10,10,10,10,7,,0.00,4,,43
2013-1-6,51,48,44,48,44,36,100,88,57,30.30,30.24,30.19,10,10,4,13,9,,0.13,7,Rain,27
2013-1-7,60,48,37,45,40,34,94,73,36,30.33,30.26,30.19,10,10,4,10,7,,0.00,1,,71
2013-1-8,63,56,48,60,53,40,92,83,69,30.24,30.18,30.13,10,10,10,13,8,,0.00,7,,84
2013-1-9,69,64,60,68,64,58,100,93,86,30.23,30.20,30.13,10,7,2,15,11,23,0.00,7,,101
2013-1-10,70,65,60,68,65,59,100,96,88,30.22,30.15,29.94,10,6,1,22,13,36,0.32,8,Rain,123
2013-1-11,73,68,62,68,67,61,100,98,80,30.14,30.09,30.06,10,5,1,15,9,22,0.01,8,Rain,148
2013-1-12,72,69,66,70,67,66,100,98,86,30.10,30.03,29.96,10,3,0,16,11,24,0.00,8,Fog,147
2013-1-13,70,64,57,68,65,55,100,98,88,30.04,29.97,29.94,10,4,0,15,10,24,0.03,7,Fog-Rain,157
2013-1-14,57,50,42,57,50,42,100,97,93,30.12,30.08,30.03,10,6,1,15,9,22,0.10,8,Rain,23
2013-1-15,59,52,44,59,50,43,100,98,93,30.08,30.02,29.95,10,3,0,13,8,,0.02,8,Fog-Rain,23
2013-1-16,53,47,39,52,46,37,100,96,86,30.10,30.01,29.96,10,8,2,17,10,20,0.13,8,Rain,356
2013-1-17,52,44,37,37,35,32,95,78,47,30.39,30.21,30.11,10,10,7,21,13,33,0.00,5,,323
2013-1-18,58,47,36,41,37,34,91,72,40,30.53,30.44,30.39,10,10,10,14,9,,0.00,0,,28
2013-1-19,64,52,39,48,40,35,85,66,45,30.40,30.35,30.27,10,10,10,9,5,,0.00,3,Rain,79
2013-1-20,64,56,47,51,49,46,100,90,51,30.27,30.18,30.14,10,4,0,9,3,,0.00,0,Fog,211
2013-1-21,66,54,42,48,46,42,100,93,40,30.23,30.16,30.14,10,3,0,13,1,,0.00,0,Fog,10
2013-1-22,58,50,41,45,36,27,92,65,35,30.38,30.32,30.23,10,10,10,12,7,,0.00,0,,39
2013-1-23,64,52,39,51,45,37,95,77,52,30.42,30.35,30.31,10,10,10,12,4,,0.00,1,,215
2013-1-24,67,56,46,56,49,46,100,94,66,30.36,30.32,30.25,10,4,0,13,2,,0.00,0,Fog,223
2013-1-25,69,60,51,58,53,50,100,91,62,30.30,30.25,30.17,10,5,0,13,3,,0.00,0,Fog,207
2013-1-26,70,62,53,61,56,54,100,96,71,30.27,30.22,30.20,10,3,0,12,2,,0.00,3,Fog,215
2013-1-27,70,62,53,63,57,53,100,95,69,30.32,30.28,30.25,10,5,0,10,3,,0.00,3,Fog,96
2013-1-28,73,64,56,66,60,55,100,94,70,30.28,30.22,30.14,10,4,0,15,6,20,0.00,3,Fog,96
2013-1-29,70,68,66,68,67,64,100,97,88,30.14,30.01,29.85,10,4,0,17,9,25,0.12,8,Fog-Rain,150
2013-1-30,71,58,44,68,59,32,100,90,51,30.16,29.80,29.71,10,6,1,25,13,34,0.99,6,Rain-Thunderstorm,247
2013-1-31,59,49,39,40,32,24,76,54,25,30.34,30.26,30.18,10,10,10,13,7,,0.00,0,,278